Location: Brno
(49.2000°N, 16.6330°E)
Time: 03:22:48
(UTC+02:00)

Vanguard 3 - Pass Details

Date: 09 August 2021
Orbit: 510 x 3260 km, 33.3° (Epoch: 16 September)

Event Time Altitude Azimuth Distance (km) Brightness Sun altitude
Rises 16:46:23 0° 228° (SW) 4,401 11.8 33.3°
Reaches altitude 10° 16:49:13 10° 219° (SW) 3,756 11.4 32.8°
Maximum altitude 16:58:19 35° 158° (SSE) 3,149 10.3 31.4°
Drops below altitude 10° 17:12:14 10° 102° (ESE) 5,773 11.1 29.1°
Sets 17:17:53 0° 96° (E) 7,048 11.4 28.2°
